TimeMDT,TemperatureF,Dew PointF,Humidity,Sea Level PressureIn,VisibilityMPH,Wind Direction,Wind SpeedMPH,Gust SpeedMPH,PrecipitationIn,Events,Conditions,WindDirDegrees,DateUTC
12:24 AM,64.4,53.6,68,30.16,10.0,Calm,Calm,-,N/A,,Scattered Clouds,0,2013-08-03 06:24:00
12:53 AM,64.9,54.0,68,29.95,10.0,Calm,Calm,-,N/A,,Overcast,0,2013-08-03 06:53:00
1:53 AM,63.0,53.1,70,29.93,10.0,NW,6.9,-,N/A,,Clear,320,2013-08-03 07:53:00
2:53 AM,61.0,53.1,75,29.94,10.0,North,5.8,-,N/A,,Clear,350,2013-08-03 08:53:00
3:53 AM,59.0,51.1,75,29.93,10.0,Calm,Calm,-,N/A,,Clear,0,2013-08-03 09:53:00
4:53 AM,57.9,51.1,78,29.94,10.0,Calm,Calm,-,N/A,,Clear,0,2013-08-03 10:53:00
5:53 AM,55.9,50.0,80,29.96,10.0,North,3.5,-,N/A,,Clear,360,2013-08-03 11:53:00
6:53 AM,57.0,48.9,74,30.00,10.0,ENE,4.6,-,N/A,,Clear,60,2013-08-03 12:53:00
7:53 AM,64.0,52.0,65,29.98,10.0,Calm,Calm,-,N/A,,Clear,0,2013-08-03 13:53:00
8:53 AM,69.1,52.0,54,30.01,10.0,Calm,Calm,-,N/A,,Clear,0,2013-08-03 14:53:00
9:53 AM,73.9,52.0,46,30.02,10.0,Variable,6.9,-,N/A,,Clear,0,2013-08-03 15:53:00
10:53 AM,75.0,53.1,46,30.01,10.0,SSE,6.9,-,N/A,,Clear,150,2013-08-03 16:53:00
11:53 AM,77.0,53.1,43,30.01,10.0,Variable,5.8,-,N/A,,Clear,0,2013-08-03 17:53:00
12:53 PM,80.1,51.1,36,29.99,10.0,SE,8.1,-,N/A,,Clear,130,2013-08-03 18:53:00
1:53 PM,82.9,50.0,32,29.97,10.0,Variable,3.5,-,N/A,,Clear,0,2013-08-03 19:53:00
2:53 PM,86.0,46.9,26,29.94,10.0,SSE,3.5,16.1,N/A,,Clear,150,2013-08-03 20:53:00
3:53 PM,84.9,37.9,19,29.93,10.0,Variable,5.8,-,N/A,,Clear,0,2013-08-03 21:53:00
4:53 PM,87.1,37.9,18,29.90,10.0,Variable,5.8,-,N/A,,Clear,0,2013-08-03 22:53:00
5:53 PM,87.1,41.0,20,29.90,10.0,East,3.5,-,N/A,,Partly Cloudy,80,2013-08-03 23:53:00
6:53 PM,86.0,39.9,20,29.89,10.0,ESE,6.9,-,N/A,,Partly Cloudy,120,2013-08-04 00:53:00
7:53 PM,84.0,41.0,22,29.88,10.0,Calm,Calm,-,N/A,,Partly Cloudy,0,2013-08-04 01:53:00
8:53 PM,81.0,43.0,26,29.88,10.0,SW,8.1,-,N/A,,Clear,220,2013-08-04 02:53:00
9:53 PM,75.9,41.0,29,29.90,10.0,NNW,4.6,-,N/A,,Clear,340,2013-08-04 03:53:00
10:53 PM,75.0,43.0,32,29.91,10.0,Calm,Calm,-,N/A,,Partly Cloudy,0,2013-08-04 04:53:00
11:53 PM,68.0,43.0,40,29.94,10.0,North,9.2,-,N/A,,Clear,10,2013-08-04 05:53:00